Вернуться в каталог

STARLINK-36915

АктивенСвязьVLEO
NORAD 68061·PAYLOAD·🇺🇸 United States

Запущен Mar 2, 2026 с Vandenberg Space Force Base

Loading…

Ближайшие Пролёты (ближайшие 24 часа)

TLE

СвежийSource: CelesTrak SupGP

Эпоха: Sep 14, 2026, 15:41 UTC

1 68061C 26041X   26257.65395833 -.00025783  00000+0 -76199-3 0  2576
2 68061  53.1582 246.7654 0001329  91.5112 332.8687 15.34394425    13

Отслеживайте STARLINK-36915 в реальном времени с AllMySat

Download on the App Store